Chester, SC

2:10 AM EST on January 20, 2017 (GMT -0500)
Chester

Weather History for KDCM - November, 2012

Change the Weather History Date:

Thursday, November 8, 2012

  Actual Average (KUZA) Record (KUZA)
Temperature  
Mean Temperature 53 °F -  
Max Temperature 64 °F 64 °F 80 °F (1975)
Min Temperature 42 °F 42 °F 25 °F (1951)
Degree Days  
Heating Degree Days 12    
Growing Degree Days 3 (Base 50)    
Moisture  
Dew Point 32 °F    
Average Humidity 52    
Maximum Humidity 93    
Minimum Humidity 26    
Precipitation  
Precipitation 0.00 in - - ()
Sea Level Pressure  
Sea Level Pressure 30.08 in    
Wind  
Wind Speed 6 mph (NW)    
Max Wind Speed 9 mph    
Max Gust Speed -    
Visibility 8 miles    
Events      
Averages and records for this station are not official NWS values.
T = Trace of Precipitation, MM = Missing Value Source: NWS Daily Summary

Daily Weather History Graph

Daily Weather History Graph

Search for Another Location

Airport or City:

Trip Planner

Search our weather history database for the weather conditions in past years. The results will help you decide how hot, cold, wet, or windy it might be!

Date:

Astronomy

Nov. 08, 2012 Rise Set
Actual Time 6:52 AM EST 5:24 PM EST
Civil Twilight 6:26 AM EST 5:50 PM EST
Nautical Twilight 5:55 AM EST 6:20 PM EST
Astronomical Twilight 5:26 AM EST 6:50 PM EST
Moon 1:00 AM EST (11/8) 1:52 PM EST (11/8)
Length of Visible Light 11h 24m
Length of Day
10h 31m
Waning Crescent, 33% of the Moon is Illuminated
Nov 8
Waning Crescent
Nov 13
New
Nov 20
First Quarter
Nov 28
Full
Dec 6
Last Quarter

Hourly Weather History & Observations

Time (EST) Temp. Windchill Dew Point Humidity Pressure Visibility Wind Dir Wind Speed Gust Speed Precip Events Conditions
12:15 AM 42.8 °F 39.3 °F 41.0 °F 93% 29.97 in 7.0 mi WNW 5.8 mph - N/A   Clear
12:35 AM 42.8 °F 39.3 °F 41.0 °F 93% 29.98 in 7.0 mi WNW 5.8 mph - N/A   Scattered Clouds
12:55 AM 42.8 °F 39.3 °F 41.0 °F 93% 29.98 in 7.0 mi West 5.8 mph - N/A   Scattered Clouds
1:15 AM 42.8 °F 39.3 °F 39.2 °F 87% 29.98 in 7.0 mi WNW 5.8 mph - N/A   Clear
1:35 AM 42.8 °F 38.6 °F 39.2 °F 87% 29.98 in 7.0 mi WNW 6.9 mph - N/A   Clear
1:55 AM 42.8 °F 38.0 °F 37.4 °F 81% 29.99 in 7.0 mi NW 8.1 mph - N/A   Clear
2:15 AM 42.8 °F 38.0 °F 37.4 °F 81% 29.99 in 10.0 mi NW 8.1 mph - N/A   Clear
2:55 AM 42.8 °F 38.0 °F 37.4 °F 81% 29.99 in 7.0 mi NW 8.1 mph - N/A   Clear
3:55 AM 42.8 °F 38.0 °F 35.6 °F 76% 30.00 in 10.0 mi NW 8.1 mph - N/A   Clear
4:15 AM 42.8 °F 38.6 °F 35.6 °F 76% 30.01 in 10.0 mi NW 6.9 mph - N/A   Clear
4:35 AM 44.6 °F 40.2 °F 35.6 °F 71% 30.01 in 7.0 mi WNW 8.1 mph - N/A   Clear
4:55 AM 44.6 °F 40.7 °F 35.6 °F 71% 30.02 in 10.0 mi WNW 6.9 mph - N/A   Clear
5:15 AM 42.8 °F 38.6 °F 35.6 °F 76% 30.03 in 10.0 mi WNW 6.9 mph - N/A   Clear
5:35 AM 42.8 °F 38.6 °F 35.6 °F 76% 30.03 in 7.0 mi WNW 6.9 mph - N/A   Clear
5:55 AM 42.8 °F 38.6 °F 35.6 °F 76% 30.04 in 7.0 mi WNW 6.9 mph - N/A   Clear
6:15 AM 42.8 °F 38.6 °F 35.6 °F 76% 30.04 in 10.0 mi WNW 6.9 mph - N/A   Clear
6:35 AM 42.8 °F 38.6 °F 35.6 °F 76% 30.05 in 7.0 mi WNW 6.9 mph - N/A   Clear
6:55 AM 42.8 °F 38.6 °F 35.6 °F 76% 30.06 in 7.0 mi WNW 6.9 mph - N/A   Clear
7:15 AM 42.8 °F 38.6 °F 35.6 °F 76% 30.06 in 7.0 mi NW 6.9 mph - N/A   Clear
7:55 AM 44.6 °F 40.7 °F 35.6 °F 71% 30.09 in 7.0 mi WNW 6.9 mph - N/A   Clear
8:15 AM 44.6 °F 41.4 °F 35.6 °F 71% 30.10 in 7.0 mi WNW 5.8 mph - N/A   Clear
8:35 AM 46.4 °F 42.9 °F 35.6 °F 66% 30.10 in 7.0 mi NW 6.9 mph - N/A   Clear
8:55 AM 50.0 °F - 35.6 °F 58% 30.11 in 7.0 mi NW 5.8 mph - N/A   Clear
9:15 AM 50.0 °F - 35.6 °F 58% 30.11 in 7.0 mi NW 5.8 mph - N/A   Clear
9:35 AM 51.8 °F - 35.6 °F 54% 30.12 in 7.0 mi West 3.5 mph - N/A   Clear
9:55 AM 53.6 °F - 35.6 °F 51% 30.12 in 5.0 mi WNW 5.8 mph - N/A   Haze
10:15 AM 55.4 °F - 35.6 °F 47% 30.13 in 7.0 mi West 6.9 mph - N/A   Clear
10:35 AM 55.4 °F - 35.6 °F 47% 30.12 in 7.0 mi WNW 5.8 mph - N/A   Clear
10:55 AM 57.2 °F - 33.8 °F 41% 30.12 in 7.0 mi WNW 5.8 mph - N/A   Clear
11:15 AM 59.0 °F - 32.0 °F 36% 30.12 in 7.0 mi NNW 4.6 mph - N/A   Clear
11:35 AM 60.8 °F - 32.0 °F 34% 30.12 in 7.0 mi NW 4.6 mph - N/A   Clear
11:55 AM 60.8 °F - 32.0 °F 34% 30.11 in 7.0 mi NW 3.5 mph - N/A   Clear
12:15 PM 60.8 °F - 32.0 °F 34% 30.09 in 7.0 mi WNW 3.5 mph - N/A   Clear
12:35 PM 62.6 °F - 32.0 °F 32% 30.08 in 7.0 mi Calm Calm - N/A   Clear
12:55 PM 62.6 °F - 32.0 °F 32% 30.07 in 5.0 mi WNW 9.2 mph - N/A   Haze
1:15 PM 62.6 °F - 32.0 °F 32% 30.07 in 7.0 mi NW 3.5 mph - N/A   Clear
1:35 PM 62.6 °F - 30.2 °F 30% 30.06 in 7.0 mi North 5.8 mph - N/A   Clear
1:55 PM 64.4 °F - 30.2 °F 28% 30.06 in 7.0 mi West 5.8 mph - N/A   Clear
2:15 PM 64.4 °F - 30.2 °F 28% 30.06 in 7.0 mi WNW 4.6 mph - N/A   Clear
2:35 PM 64.4 °F - 30.2 °F 28% 30.06 in 7.0 mi West 9.2 mph - N/A   Clear
2:55 PM 64.4 °F - 30.2 °F 28% 30.06 in 7.0 mi NNW 5.8 mph - N/A   Clear
3:15 PM 64.4 °F - 28.4 °F 26% 30.06 in 10.0 mi WNW 6.9 mph - N/A   Clear
3:35 PM 64.4 °F - 30.2 °F 28% 30.06 in 5.0 mi WNW 3.5 mph - N/A   Haze
3:55 PM 64.4 °F - 28.4 °F 26% 30.06 in 5.0 mi NNW 4.6 mph - N/A   Haze
4:15 PM 62.6 °F - 26.6 °F 26% 30.07 in 10.0 mi NW 4.6 mph - N/A   Clear
4:35 PM 62.6 °F - 26.6 °F 26% 30.06 in 7.0 mi NNW 3.5 mph - N/A   Clear
4:55 PM 60.8 °F - 30.2 °F 31% 30.07 in 7.0 mi NW 4.6 mph - N/A   Clear
5:15 PM 59.0 °F - 28.4 °F 31% 30.07 in 7.0 mi WNW 4.6 mph - N/A   Clear
5:35 PM 59.0 °F - 26.6 °F 29% 30.08 in 10.0 mi WNW 4.6 mph - N/A   Clear
5:55 PM 55.4 °F - 28.4 °F 36% 30.09 in 7.0 mi WNW 4.6 mph - N/A   Clear
6:15 PM 53.6 °F - 26.6 °F 35% 30.10 in 10.0 mi West 3.5 mph - N/A   Clear
6:35 PM 53.6 °F - 26.6 °F 35% 30.11 in 7.0 mi West 4.6 mph - N/A   Clear
6:55 PM 51.8 °F - 28.4 °F 41% 30.12 in 7.0 mi West 5.8 mph - N/A   Clear
7:15 PM 51.8 °F - 28.4 °F 41% 30.12 in 10.0 mi West 5.8 mph - N/A   Clear
7:35 PM 51.8 °F - 28.4 °F 41% 30.12 in 10.0 mi West 4.6 mph - N/A   Clear
7:55 PM 50.0 °F - 28.4 °F 43% 30.13 in 7.0 mi WNW 5.8 mph - N/A   Clear
8:15 PM 51.8 °F - 28.4 °F 41% 30.14 in 10.0 mi West 3.5 mph - N/A   Clear
8:35 PM 50.0 °F - 28.4 °F 43% 30.14 in 10.0 mi WNW 4.6 mph - N/A   Clear
8:55 PM 51.8 °F - 26.6 °F 38% 30.14 in 7.0 mi WNW 8.1 mph - N/A   Clear
9:15 PM 51.8 °F - 28.4 °F 41% 30.15 in 7.0 mi NW 6.9 mph - N/A   Clear
9:35 PM 51.8 °F - 28.4 °F 41% 30.15 in 10.0 mi NW 9.2 mph - N/A   Clear
9:55 PM 51.8 °F - 28.4 °F 41% 30.16 in 10.0 mi NW 6.9 mph - N/A   Clear
10:15 PM 51.8 °F - 28.4 °F 41% 30.16 in 7.0 mi NW 8.1 mph - N/A   Clear
10:35 PM 50.0 °F - 28.4 °F 43% 30.16 in 10.0 mi NW 8.1 mph - N/A   Clear
10:55 PM 46.4 °F 44.3 °F 28.4 °F 50% 30.16 in 10.0 mi NNE 4.6 mph - N/A   Clear
11:15 PM 42.8 °F 40.1 °F 30.2 °F 61% 30.16 in 10.0 mi NNE 4.6 mph - N/A   Clear
11:35 PM 44.6 °F 41.4 °F 30.2 °F 57% 30.16 in 10.0 mi NNE 5.8 mph - N/A   Clear
11:55 PM 44.6 °F 41.4 °F 30.2 °F 57% 30.16 in 10.0 mi North 5.8 mph - N/A   Clear